DW4465 Weather Reports


time (UTC)temp
C
wind
direction
speed
KPH
gust
KPH
rain 1hr
cm
rain 24hr
cm
rain mn
cm
humidity
%
barometer
mb
20260502161539 15 0 0.0 1.6 0.00 0.00 0.00 88 1015.2
20260502151542 15 186 0.0 3.2 0.00 0.00 0.00 88 1015.0
20260502123038 15 232 1.6 6.4 0.00 0.00 0.00 87 1013.9
20260502121545 15 0 0.0 0.0 0.00 0.00 0.00 87 1013.9
20260502114544 15 0 0.0 4.8 0.00 0.00 0.00 87 1013.8
20260502113042 15 197 0.0 3.2 0.00 0.00 0.00 87 1013.6
20260502111539 15 0 0.0 4.8 0.00 0.00 0.00 87 1013.6
20260502110041 14 0 0.0 3.2 0.00 0.00 0.00 86 1013.8
20260502104547 14 0 0.0 1.6 0.00 0.00 0.00 86 1013.5
20260502103037 14 0 0.0 1.6 0.00 0.00 0.00 86 1013.4
20260502101540 13 0 0.0 1.6 0.00 0.00 0.00 86 1013.5
20260502070041 15 0 0.0 0.0 0.00 0.00 0.00 83 1014.4
20260502064541 15 0 0.0 0.0 0.00 0.00 0.00 83 1014.3
20260502063045 15 0 0.0 1.6 0.00 0.00 0.00 83 1014.4
20260502061542 15 0 0.0 3.2 0.00 0.00 0.00 83 1014.2
20260502060042 15 0 0.0 1.6 0.00 0.00 0.00 83 1014.1
20260502054546 15 331 0.0 3.2 0.00 0.00 0.00 82 1014.1
20260502053045 16 309 0.0 4.8 0.00 0.00 0.00 82 1014.2
20260502051612 16 0 0.0 4.8 0.00 0.00 0.00 82 1014.3
20260502050047 16 0 0.0 4.8 0.00 0.00 0.00 81 1014.1
20260502044541 16 0 0.0 4.8 0.00 0.00 0.00 81 1014.1
20260502043044 16 0 0.0 4.8 0.00 0.00 0.00 81 1013.8
20260502041549 16 0 1.6 4.8 0.00 0.00 0.00 80 1013.6
20260502040051 16 0 0.0 6.4 0.00 0.00 0.00 80 1013.4
20260502034547 16 0 0.0 4.8 0.00 0.00 0.00 79 1013.1
20260502033050 16 288 1.6 4.8 0.00 0.00 0.00 79 1012.9
20260502031559 17 309 0.0 6.4 0.00 0.00 0.00 78 1012.8
20260502030039 17 0 1.6 6.4 0.00 0.00 0.00 77 1012.8
20260502024537 17 0 1.6 9.7 0.00 0.00 0.00 76 1012.6
20260502023037 18 266 1.6 6.4 0.00 0.00 0.00 74 1012.5
20260502021541 18 316 1.6 6.4 0.00 0.00 0.00 73 1012.4
20260502020044 18 287 1.6 9.7 0.00 0.00 0.00 71 1012.2
20260502014541 19 265 1.6 8.0 0.00 0.00 0.00 70 1012.2
20260502013040 20 279 1.6 8.0 0.00 0.00 0.00 69 1012.0
20260502011545 20 317 3.2 12.9 0.00 0.00 0.00 68 1011.9
20260502010047 21 315 1.6 12.9 0.00 0.00 0.00 67 1011.9
20260502004539 21 349 3.2 16.1 0.00 0.00 0.00 66 1011.8
20260502003039 22 324 1.6 9.7 0.00 0.00 0.00 63 1011.8
20260502001537 22 289 3.2 11.3 0.00 0.00 0.00 62 1011.7
20260502000037 22 284 4.8 12.9 0.00 0.00 0.00 60 1011.7
20260501234552 23 285 1.6 12.9 0.00 0.00 0.00 59 1011.7
20260501233043 22 181 6.4 16.1 0.00 0.00 0.00 60 1011.7
20260501231554 22 190 6.4 14.5 0.00 0.00 0.00 62 1011.7
20260501230039 22 185 8.0 19.3 0.00 0.00 0.00 62 1011.8
20260501224547 22 190 4.8 14.5 0.00 0.00 0.00 61 1012.0
20260501223037 22 185 8.0 19.3 0.00 0.00 0.00 62 1012.1
20260501221542 22 205 6.4 16.1 0.00 0.00 0.00 61 1012.5
20260501220043 22 172 6.4 14.5 0.00 0.00 0.00 61 1012.7
20260501214551 22 182 4.8 14.5 0.00 0.00 0.00 62 1012.9
20260501213043 22 171 4.8 12.9 0.00 0.00 0.00 62 1013.2
20260501211545 21 162 9.7 22.5 0.00 0.00 0.00 64 1013.3
20260501210044 21 198 8.0 16.1 0.00 0.00 0.00 63 1013.5
20260501204542 21 241 6.4 17.7 0.00 0.00 0.00 63 1013.6
20260501203040 21 234 8.0 19.3 0.00 0.00 0.00 63 1013.7
20260501201546 22 192 6.4 16.1 0.00 0.00 0.00 62 1013.8
20260501200048 22 270 3.2 11.3 0.00 0.00 0.00 60 1013.8
20260501194543 22 172 4.8 12.9 0.00 0.00 0.00 64 1013.9
20260501193043 21 340 3.2 9.7 0.00 0.00 0.00 65 1013.8
20260501191542 21 255 1.6 11.3 0.00 0.00 0.00 64 1014.2
20260501190040 21 344 1.6 9.7 0.00 0.00 0.00 67 1014.5
20260501184539 21 166 0.0 4.8 0.00 0.00 0.00 66 1014.7
20260501183037 20 189 3.2 9.7 0.00 0.00 0.00 68 1014.8
20260501181540 20 0 0.0 4.8 0.00 0.00 0.00 70 1015.0
20260501180044 18 0 1.6 3.2 0.00 0.00 0.00 73 1015.1
20260501174601 18 153 0.0 8.0 0.00 0.00 0.00 73 1015.2
20260501173100 18 186 1.6 9.7 0.00 0.00 0.00 73 1015.4
20260501171553 18 213 1.6 11.3 0.00 0.00 0.00 73 1015.4
20260501170044 18 193 1.6 4.8 0.00 0.00 0.00 73 1015.3
20260501164544 17 0 0.0 4.8 0.00 0.00 0.00 74 1015.4
20260501163040 17 140 0.0 6.4 0.00 0.00 0.00 74 1015.5